Weather History for Providence, RI

Change the Weather History Date:

Sunday, November 25, 2012

  Actual Average Record
Temperature  
Mean Temperature 36 °F 42 °F  
Max Temperature 41 °F 50 °F 71 °F (1979)
Min Temperature 31 °F 33 °F 12 °F (1938)
Degree Days  
Heating Degree Days 29 24  
Month to date heating degree days 532 495  
Since 1 July heating degree days 876 953  
Cooling Degree Days 0 0  
Month to date cooling degree days 0 0  
Year to date cooling degree days 834 744  
Moisture  
Dew Point 18 °F    
Average Humidity 50    
Maximum Humidity 61    
Minimum Humidity 38    
Precipitation  
Precipitation 0.00 in 0.15 in 3.52 in (1983)
Month to date precipitation 0.60 3.72  
Year to date precipitation 35.33 42.17  
Snow  
Snow 0.00 in 0.10 in 3.00 in (1938)
Month to date snowfall 1.3 1.0  
Since 1 July snowfall 1.3 1.0  
Since 1 September snowfall 1.3 1.0  
Snow Depth 0.00 in    
Sea Level Pressure  
Sea Level Pressure 29.81 in    
Wind  
Wind Speed 13 mph (West)    
Max Wind Speed 23 mph    
Max Gust Speed 36 mph    
Visibility 10 miles    
Events      
T = Trace of Precipitation, MM = Missing Value Source: NWS Daily Summary

Daily Weather History Graph

Daily Weather History Graph

Search for Another Location

Airport:

Trip Planner

Search our weather history database for the weather conditions in past years. The results will help you decide how hot, cold, wet, or windy it might be!

Date:

Astronomy

Nov. 25, 2012 Rise Set
Actual Time 6:47 AM EST 4:18 PM EST
Civil Twilight 6:16 AM EST 4:48 PM EST
Nautical Twilight 5:42 AM EST 5:23 PM EST
Astronomical Twilight 5:09 AM EST 5:56 PM EST
Moon 2:34 PM EST (11/25) 3:56 AM EST (11/25)
Length of Visible Light 10h 32m
Length of Day
9h 30m
Waxing Gibbous, 93% of the Moon is Illuminated
Nov 25
Waxing Gibbous
Nov 28
Full
Dec 6
Last Quarter
Dec 13
New
Dec 20
First Quarter

Hourly Weather History & Observations

Time (EST) Temp. Windchill Dew Point Humidity Pressure Visibility Wind Dir Wind Speed Gust Speed Precip Events Conditions
12:51 AM 33.1 °F 22.2 °F 17.1 °F 52% 29.72 in 10.0 mi West 17.3 mph 24.2 mph N/A   Partly Cloudy
1:51 AM 33.1 °F 23.4 °F 17.1 °F 52% 29.73 in 10.0 mi West 13.8 mph 21.9 mph N/A   Partly Cloudy
2:51 AM 33.1 °F 22.6 °F 17.1 °F 52% 29.74 in 10.0 mi WNW 16.1 mph 25.3 mph N/A   Clear
3:51 AM 32.0 °F 20.8 °F 16.0 °F 52% 29.75 in 10.0 mi WNW 17.3 mph 24.2 mph N/A   Partly Cloudy
4:51 AM 32.0 °F 24.2 °F 16.0 °F 52% 29.78 in 10.0 mi West 9.2 mph 19.6 mph N/A   Partly Cloudy
5:51 AM 32.0 °F 21.6 °F 16.0 °F 52% 29.80 in 10.0 mi West 15.0 mph 20.7 mph N/A   Partly Cloudy
6:51 AM 32.0 °F 21.6 °F 16.0 °F 52% 29.81 in 10.0 mi West 15.0 mph 35.7 mph N/A   Scattered Clouds
7:51 AM 33.1 °F 24.9 °F 18.0 °F 54% 29.84 in 10.0 mi West 10.4 mph 18.4 mph N/A   Scattered Clouds
8:51 AM 33.1 °F 23.9 °F 19.0 °F 56% 29.83 in 10.0 mi West 12.7 mph - N/A   Mostly Cloudy
9:51 AM 35.1 °F 23.8 °F 19.0 °F 52% 29.84 in 10.0 mi West 20.7 mph 28.8 mph N/A   Mostly Cloudy
10:51 AM 36.0 °F 25.6 °F 18.0 °F 48% 29.82 in 10.0 mi WNW 18.4 mph 25.3 mph N/A   Mostly Cloudy
11:51 AM 37.9 °F 28.2 °F 18.0 °F 45% 29.79 in 10.0 mi WNW 18.4 mph 32.2 mph N/A   Mostly Cloudy
12:51 PM 39.9 °F 30.2 °F 17.1 °F 40% 29.79 in 10.0 mi West 20.7 mph 27.6 mph N/A   Mostly Cloudy
1:51 PM 41.0 °F 31.6 °F 18.0 °F 40% 29.78 in 10.0 mi West 20.7 mph 29.9 mph N/A   Mostly Cloudy
2:51 PM 39.0 °F 31.4 °F 17.1 °F 41% 29.79 in 10.0 mi West 12.7 mph 19.6 mph N/A   Mostly Cloudy
3:51 PM 39.0 °F 31.0 °F 17.1 °F 41% 29.80 in 10.0 mi West 13.8 mph - N/A   Mostly Cloudy
4:51 PM 37.0 °F 29.8 °F 18.0 °F 46% 29.82 in 10.0 mi West 10.4 mph - N/A   Scattered Clouds
5:51 PM 35.1 °F 31.0 °F 18.0 °F 50% 29.84 in 10.0 mi SW 4.6 mph - N/A   Scattered Clouds
6:51 PM 30.9 °F 24.3 °F 18.0 °F 59% 29.85 in 10.0 mi SW 6.9 mph - N/A   Scattered Clouds
7:51 PM 33.1 °F 25.5 °F 19.0 °F 56% 29.87 in 10.0 mi WSW 9.2 mph - N/A   Scattered Clouds
8:51 PM 33.1 °F 25.5 °F 19.9 °F 59% 29.88 in 10.0 mi WSW 9.2 mph - N/A   Scattered Clouds
9:51 PM 33.1 °F 25.5 °F 21.0 °F 61% 29.89 in 10.0 mi WSW 9.2 mph - N/A   Scattered Clouds
10:51 PM 33.1 °F 26.1 °F 21.9 °F 64% 29.90 in 10.0 mi WSW 8.1 mph - N/A   Scattered Clouds
11:51 PM 30.9 °F 25.2 °F 21.0 °F 67% 29.91 in 10.0 mi WSW 5.8 mph - N/A   Scattered Clouds